Location: ????????
(55.4000°N, 39.1167°E)
Time: 06:51:31
(UTC+00:00)

COSMOS 2455 - Pass Details

Date: 19 May 2025
Orbit: 899 x 909 km, 67.1° (Epoch: 23 June)

Event Time Altitude Azimuth Distance (km) Brightness Sun altitude
Rises 23:33:20 0° 317° (NW) 3,545 6.1 -9.5°
Reaches altitude 10° 23:35:50 10° 317° (NW) 2,602 5.4 -9.3°
Maximum altitude 23:41:54 87° 231° (SW) 918 2.9 -8.8°
Drops below altitude 10° 23:47:56 10° 142° (SE) 2,591 5.1 -8.3°
Sets 23:50:26 0° 142° (SE) 3,530 5.8 -8.1°
